Lid_Strength_Index
1 1 1 1 1 1 1 1 1 1 1 2 2 2 2 3 4 5 5 5 6 6 7 7 9 12 11 11 10 11 11 12 13 14 12 12 13 13 13 12 12 12 11
1 1 1 1 1 1 1 1 1 1 1 2 2 3 3 4 5 6 6 7 7 7 8 9 10 12 12 12 11 12 13 14 13 14 13 13 13 12 12 12 13 13 13
1 1 2 1 1 1 2 1 1 1 2 2 3 4 4 5 5 6 6 7 8 8 9 10 11 13 13 14 13 13 14 15 14 14 15 13 14 14 13 13 13 13 13
2 2 2 2 2 2 2 1 1 2 2 3 4 4 5 5 6 6 7 7 9 10 11 11 12 13 13 14 14 14 15 15 15 15 15 15 14 15 13 14 14 14 14
6 5 4 3 2 2 2 2 3 3 3 3 4 5 5 6 7 7 9 9 11 12 13 13 13 14 14 13 14 15 16 16 16 16 15 15 15 16 15 14 14 13 14
9 9 9 9 8 7 5 4 5 5 5 5 6 6 6 7 9 11 10 11 13 14 14 14 14 16 15 15 14 14 14 16 16 15 14 14 15 14 14 14 14 14 13
11 11 11 11 11 11 11 10 10 9 9 8 8 8 8 8 11 12 13 13 14 13 14 15 16 16 17 16 15 14 14 13 13 14 14 14 14 14 13 15 14 14 13
14 14 14 14 13 13 13 13 12 12 12 12 12 12 12 12 12 13 13 13 14 14 14 15 15 16 16 16 16 16 16 15 15 15 13 13 13 13 13 13 14 14 15
17 16 16 15 14 13 13 13 13 14 13 13 14 14 14 14 13 13 14 15 15 15 15 15 15 16 16 15 16 16 16 16 14 13 13 13 12 12 14 14 14 14 15
18 18 17 16 15 14 14 13 14 14 15 15 15 15 16 15 14 13 14 15 16 16 17 16 16 16 16 14 15 15 16 15 15 14 13 13 12 13 13 13 14 14 15
18 17 16 16 16 15 15 14 15 15 15 16 16 16 16 16 15 13 13 16 16 17 17 17 16 14 14 13 13 14 14 14 13 14 14 15 15 13 14 14 14 14 15
18 16 16 16 16 16 15 15 15 15 16 16 16 16 17 17 15 13 13 14 14 15 16 17 16 13 13 13 14 13 13 13 14 15 16 16 15 14 14 14 15 15 15
15 15 15 15 15 14 15 14 14 14 15 15 16 15 15 17 16 13 13 14 14 15 15 15 14 13 12 12 13 13 14 14 15 15 15 15 14 14 15 16 16 16 16
15 15 14 14 14 14 13 13 13 13 13 14 14 14 14 15 15 14 13 13 14 14 14 14 13 13 13 13 14 14 13 14 14 14 14 14 15 15 15 15 15 16 15
15 15 15 14 14 13 13 13 13 13 13 13 13 13 13 13 13 12 12 13 13 13 14 15 14 14 14 14 14 14 14 14 13 13 14 15 15 15 16 16 16 17 16
15 15 15 15 14 14 13 13 11 11 11 11 11 11 12 11 11 11 11 11 11 12 13 14 15 15 14 14 14 14 14 14 13 13 14 14 15 15 16 16 16 16 17
17 16 15 15 15 15 14 14 14 12 11 11 12 11 11 11 10 10 10 10 11 11 13 13 14 14 14 13 13 14 14 14 14 14 14 14 15 16 17 17 18 18 19
16 17 16 16 15 15 15 14 14 13 14 14 13 13 12 11 11 10 9 10 12 12 12 13 13 13 13 13 14 16 17 16 16 16 16 16 16 17 18 18 18 19 19
16 16 16 15 15 15 14 14 14 14 14 14 14 14 15 13 13 12 11 13 14 15 15 15 14 15 15 16 16 17 17 18 18 19 19 19 19 18 20 20 21 22 21
16 18 18 15 15 15 14 14 15 15 15 15 14 14 13 14 16 17 17 17 17 18 18 19 19 19 19 19 19 20 20 20 20 20 21 21 20 20 21 22 21 22 22
16 15 19 15 15 15 15 15 15 16 15 16 16 15 15 18 20 20 20 20 19 19 20 20 21 21 21 21 20 21 21 21 21 22 21 22 22 23 22 22 23 23 23
16 16 16 16 16 16 16 15 15 16 16 16 17 18 17 19 20 21 21 22 22 22 21 22 22 22 22 21 21 21 22 22 22 22 22 23 23 23 23 23 23 23 23
16 16 16 16 16 17 16 16 16 16 17 18 18 19 20 21 21 22 23 23 23 22 22 22 23 23 23 23 22 21 21 22 22 22 23 23 23 23 22 22 23 23 22
16 16 16 17 17 17 17 17 17 19 18 18 19 19 20 21 21 22 22 22 22 22 22 23 23 23 23 23 23 23 23 23 23 22 22 22 23 23 23 23 22 22 22
17 17 17 17 17 17 17 18 18 19 19 19 20 20 20 20 21 21 21 21 22 22 22 22 22 23 23 23 23 23 23 24 24 23 23 21 21 22 22 22 21 21 21
19 18 18 18 18 18 18 18 19 20 20 20 20 21 21 21 21 21 21 22 22 22 22 22 23 23 23 22 22 23 23 22 23 23 22 21 21 20 21 21 21 21 20